Location: Brantley
(31.5822°N, 86.2569°W)
Time: 12:15:28
(UTC+00:00)

Courier 1B Rocket - Pass Details

Date: 21 February 2026
Orbit: 920 x 1201 km, 28.2° (Epoch: 17 March)

Event Time Altitude Azimuth Distance (km) Brightness Sun altitude
Rises 02:40:50 0° 270° (W) 3,553 8.8 -39.8°
Reaches altitude 10° 02:43:26 10° 267° (W) 2,622 7.9 -40.4°
Enters shadow 02:45:57 25° 259° (W) 1,777 6.7 -40.9°
Maximum altitude 02:49:37 60° 188° (S) 1,082 - -41.6°
Drops below altitude 10° 02:56:07 10° 110° (ESE) 2,757 - -43.0°
Sets 02:58:55 0° 107° (ESE) 3,750 - -43.5°
